Location: Newark
(49.3808°N, 3.1844°E)
Time: 22:31:56
(UTC+00:00)

Vanguard 2 Rocket - All Passes

Search period start: 22 November 2019 00:00
Search period end: 02 December 2019 00:00
Orbit: 554 x 3326 km, 32.9° (Epoch: 22 November)

Date Brightness Start Highest point End Pass type
(mag) Time Alt. Az. Time Alt. Az. Time Alt. Az.
22 Nov - 01:58:25 10° SSW 02:00:20 12° S 02:02:31 10° SSE visible
22 Nov - 04:10:23 10° SSW 04:12:32 12° S 04:15:00 10° S visible
23 Nov - 03:11:32 10° SSW 03:13:15 11° S 03:15:09 10° SSE visible
24 Nov - 02:13:10 10° SSW 02:14:05 10° S 02:15:03 10° S visible
01 Dec - 20:32:39 10° S 20:33:14 10° S 20:33:47 10° SSE visible
01 Dec - 22:44:39 10° SSW 22:45:16 10° S 22:45:53 10° S night (unlit)
